STARLINK-1276, 45368

Orbit data source: Space-Track

STARLINK-1276, 45368 is a payload satellite owned by SpaceX/Seattle (US) in LEO that was launched on Wed, 18 Mar 2020 UTC via an FALCON 9 launch vehicle from the Air Force Eastern Test Range (AFETR). Payload-class satellites include a variety of spacecraft equipped with specific instruments for various scientific and technological missions. These include communications satellites like Starlink; space stations such as the ISS; scientific satellites like the Hubble; Earth observation satellites from companies like Planet Labs, Umbra, and HawkEye 360; GPS; miniature CubeSats for education and research; and military/defense satellites.

Loading next visibility...
Identifier
45368, 2020-019J
Orbit
LEO
Last TLE update
1 day ago
Origin
Manufacturer
SpaceX/Seattle
Mission
Operational Commercial Communications
Bus & Motor
STARLINK, Unknown motor
Mass
260 kg wet, ~248 kg dry
Launch date (UTC)
2020-03-18 (5 years ago)
Launch vehicle
FALCON 9
Launch site
Air Force Eastern Test Range (AFETR)
Object type
Payload
Rocket body
Debris
Shape & HBR
Box + 1 Pan, 4.4 m
Radar Cross Section
13.562 m², Large (>1 m²)

Expand to show TLE details & history

TLE from 1 day ago
0 STARLINK-1276
1 45368U 20019J   25199.54645935  .00007928  00000-0  55052-3 0  9991
2 45368  53.0532 137.7295 0001566  85.4375 274.6792 15.06399794294443
Epoch: 2025-07-18T13:06Z
TLE epoch observation values (Epoch: 2025-07-18T13:06:54.087Z)
Latitude
-0.0001°
Longitude
4.4077°
Altitude
548.003 km
Speed
7.589 km/s
True Right ascension
09h 10m 55s
True Declination
0° 00' 00"
Sunlit
Object was in daylight at epoch
Visualization orbit readout
Latitude
-8.34875°
Longitude
-6.65256°
Altitude
549.666 km
Speed
7.588 km/s
Apparent Right ascension
11h 06m 37s
Apparent Declination
-34° 26' 13"
Sunlit
Object is in daylight
Visualization observer readout
Local Sidereal Time
03:22:50
Azimuth
105.251° ESE
Elevation
-39.762°
Doppler factor
1
Orbital elements
Apogee altitude
548.568 km
Perigee altitude
546.399 km
Semi-major axis
6,925.62 km
Eccentricity
0.00016
Inclination
53.0532°
RAAN
137.7295°
Arg. of periapsis
85.4375°
True anomaly
274.66131°
Mean anomaly
274.6792°
Eccentric anomaly
274.67026°
Mean motion
3.76578 °/min
Orbital period
95.6 mins
BSTAR
0.00055052
Loading maneuver chart data...
Loading SW <> Apogee altitude chart data...
Loading historical data...
Loading historical data...
Loading historical data...
Loading historical data...
Loading historical data...
Loading historical data...
Loading historical data...
|